Lapse_Rate
7.8 7.8 7.5 7.5 7.3 7.4 7.4 7.5 7.6 7.4 7.6 7.5 7.2 7.0 6.8 6.9 7.1 7.0 6.7 7.2 6.8 6.4 6.2 6.2 6.2 5.8 5.5 5.5 5.3 5.3 5.5 5.7 5.8 5.4 5.4 5.3 4.9 5.1 5.3 5.3 5.6 5.5 5.7
7.9 7.8 7.5 7.2 7.5 7.5 7.5 7.6 7.6 7.6 7.6 7.5 7.4 7.1 7.0 6.8 6.8 7.1 7.1 7.0 6.7 6.5 6.4 5.9 5.8 5.9 5.5 5.4 5.3 5.2 5.1 5.2 5.3 5.2 5.0 5.1 5.3 5.2 5.5 5.6 5.7 5.9 6.2
8.3 7.9 7.6 7.5 7.7 7.7 7.8 7.7 7.8 7.9 7.8 7.8 7.7 7.6 7.4 7.3 7.2 7.2 7.0 6.9 6.6 6.2 6.1 5.8 5.6 5.5 5.3 5.3 5.4 5.1 4.9 5.0 5.0 5.2 5.3 4.9 5.1 5.4 5.5 5.5 5.6 5.4 5.3
8.4 8.1 7.7 7.8 8.1 8.1 8.0 8.0 8.1 8.0 7.9 7.7 7.4 7.2 7.3 7.3 7.4 7.4 7.2 7.0 6.6 6.2 6.0 5.9 5.6 5.2 5.0 4.8 5.2 5.2 5.1 5.0 5.1 5.1 4.9 5.1 5.5 5.4 5.2 5.2 5.3 5.9 5.9
8.6 8.3 8.0 8.1 8.3 8.1 8.1 8.1 7.9 7.7 7.7 7.8 7.6 7.6 7.6 7.7 7.4 7.5 7.1 7.0 6.7 6.1 6.0 5.9 5.5 5.0 5.2 4.9 5.0 5.0 5.0 5.1 5.3 4.8 5.1 5.4 5.5 5.3 5.0 5.1 5.7 6.1 6.2
8.9 8.7 8.3 8.1 8.3 8.3 8.1 8.0 7.9 7.9 7.8 7.8 7.8 7.8 7.8 7.6 7.5 7.5 7.4 7.0 6.5 5.7 5.8 5.8 5.7 5.1 5.4 5.1 5.0 5.0 4.9 4.9 5.0 5.1 4.9 5.1 5.5 5.6 5.3 5.6 5.7 5.9 6.4
8.5 8.8 8.6 8.2 8.5 8.7 8.4 8.0 8.0 7.9 7.9 7.9 7.8 7.7 7.7 7.5 7.6 7.5 7.5 7.1 6.8 6.0 5.7 5.9 5.5 5.4 5.4 5.2 5.0 5.2 4.8 4.9 4.8 4.8 5.2 5.5 5.5 5.8 5.7 5.9 5.9 5.9 6.1
8.9 8.6 8.8 8.6 8.3 8.5 8.4 8.2 8.0 7.9 8.0 8.0 7.7 7.7 7.9 8.0 7.8 7.4 7.5 7.3 7.0 6.2 5.6 5.8 5.4 5.7 5.5 5.6 5.4 5.5 5.5 5.5 5.5 5.5 5.5 5.5 5.7 5.9 5.8 5.7 6.1 6.2 6.4
9.1 9.2 9.2 9.0 8.7 8.6 8.6 8.1 8.1 8.1 8.1 7.5 7.5 7.9 7.9 7.6 7.5 7.5 7.4 7.1 6.6 5.5 5.5 5.6 5.7 5.3 5.7 5.5 5.5 5.8 5.9 6.0 5.7 5.9 6.0 5.9 5.9 5.9 6.0 6.0 6.3 6.4 6.6
9.3 9.4 9.3 9.0 8.9 8.8 8.8 8.2 8.1 7.5 7.5 7.3 7.6 7.6 7.5 7.6 7.5 7.6 7.4 7.0 6.6 6.3 6.1 6.1 5.8 5.8 5.8 5.8 5.7 5.8 5.9 5.8 5.8 6.1 6.1 6.1 6.1 6.2 6.0 6.0 6.2 6.4 6.3
9.3 9.0 8.9 8.6 8.9 9.0 8.7 8.0 7.5 7.6 7.8 7.7 7.2 7.4 7.8 7.4 7.5 7.3 7.1 6.8 6.4 6.0 5.9 5.9 6.2 5.7 5.6 5.6 5.7 5.9 5.7 5.7 5.8 6.0 6.2 6.3 6.2 6.1 6.2 6.3 6.4 6.4 6.4
8.7 8.6 8.8 8.9 9.2 8.7 7.9 7.3 7.4 7.7 7.9 7.8 7.9 7.8 7.3 7.2 7.4 7.1 6.7 6.4 6.2 6.0 5.7 6.0 5.8 5.7 5.7 5.8 5.9 5.8 6.0 6.0 6.2 6.2 6.3 6.3 6.4 6.3 6.3 6.3 6.2 6.2 6.2
8.2 8.6 9.1 8.8 8.5 8.3 7.5 7.5 7.9 8.0 7.8 7.7 7.9 7.4 7.0 7.1 7.1 6.4 6.5 6.2 6.1 5.8 5.6 5.4 5.5 5.6 5.5 5.8 6.0 6.2 6.2 6.4 6.5 6.6 6.6 6.5 6.2 6.2 6.2 6.2 6.3 6.4 6.5
8.3 8.4 8.5 8.4 8.2 7.6 7.5 7.9 7.7 7.6 7.7 7.6 7.4 7.1 7.0 6.9 6.5 6.1 6.1 5.9 5.8 5.6 5.6 5.8 5.8 5.8 5.9 5.9 5.9 6.1 6.3 6.4 6.7 6.8 6.1 5.9 5.8 5.8 6.1 6.3 6.5 6.8 7.0
7.8 7.7 7.8 8.0 7.8 7.8 7.7 7.8 8.0 7.8 7.5 7.3 6.9 6.7 6.6 6.4 6.0 6.0 6.0 6.0 6.0 5.8 5.7 5.6 5.8 5.9 5.8 5.8 6.2 6.3 6.5 6.6 6.7 6.6 6.4 6.3 6.2 6.3 6.6 6.7 6.8 6.8 6.8
7.4 7.4 7.5 7.7 7.6 7.9 7.9 7.7 7.8 7.3 7.1 6.9 6.4 6.4 6.3 6.0 5.7 5.7 5.7 5.7 5.7 5.7 5.6 6.0 5.9 5.8 6.0 6.5 6.5 6.3 6.2 6.1 6.3 6.2 6.1 6.1 6.4 6.6 6.8 6.8 6.8 6.7 6.7
7.1 7.2 7.6 7.9 7.7 8.0 7.6 7.7 7.2 7.3 6.8 6.3 5.9 6.2 6.1 5.9 5.5 5.5 5.6 5.6 5.6 5.8 6.1 6.1 6.0 6.3 6.4 6.3 6.0 5.7 5.6 5.7 5.6 5.6 5.5 5.9 6.5 6.9 7.1 7.1 7.0 6.9 6.8
7.4 7.4 7.8 7.8 7.6 7.6 7.6 7.4 7.4 6.7 6.0 5.9 6.0 6.2 5.9 5.5 5.3 5.5 5.7 5.5 5.6 5.8 5.9 5.9 6.1 6.2 5.9 5.8 6.0 6.0 5.9 5.9 5.8 5.8 6.2 6.4 6.8 7.1 7.1 7.1 7.0 6.9 6.8
7.2 7.3 7.4 7.5 7.4 7.0 6.9 6.7 6.3 5.9 6.2 6.3 6.0 5.7 5.7 5.4 5.5 5.6 5.5 5.6 5.8 5.7 5.7 5.8 5.9 6.5 6.4 5.8 5.6 5.7 6.0 6.0 5.9 6.0 6.2 6.5 6.7 7.0 7.1 7.0 6.9 6.7 6.6
6.9 6.7 7.0 6.8 6.2 6.5 6.1 6.3 6.3 6.1 6.1 5.9 5.5 5.7 5.4 5.4 5.3 5.6 5.7 5.9 6.1 5.9 5.9 6.1 5.8 5.2 6.1 5.8 5.5 5.6 5.6 6.0 6.2 6.2 6.2 6.2 6.5 6.8 6.9 6.9 6.8 6.7 6.5
6.0 6.4 6.1 5.8 5.8 6.1 6.1 6.2 5.9 5.6 5.5 5.2 5.1 5.5 6.0 5.5 5.4 5.7 6.0 6.3 6.2 6.0 6.0 5.9 5.7 5.9 5.9 5.9 6.0 5.8 5.7 6.0 6.3 6.4 6.2 6.1 6.3 6.5 6.6 6.7 6.8 6.6 6.4
6.2 6.0 5.7 5.6 5.6 5.9 6.0 5.7 5.6 5.6 5.2 5.0 5.3 5.4 5.3 5.3 5.4 5.7 6.0 6.4 6.4 6.4 6.4 6.6 6.5 6.5 6.1 6.1 6.2 6.0 6.3 6.4 6.5 6.3 6.1 6.1 6.3 6.4 6.6 6.6 6.7 6.5 6.5
5.7 5.8 6.0 5.9 5.9 5.8 5.8 5.8 5.8 5.4 5.1 5.1 5.2 5.3 5.5 5.3 5.5 5.7 6.0 6.1 6.4 6.6 6.4 6.4 6.6 6.4 6.1 6.0 6.0 5.7 5.7 6.1 6.3 6.2 6.2 6.3 6.3 6.3 6.4 6.5 6.6 6.5 6.7
5.5 5.1 5.1 5.7 5.5 5.8 6.0 6.0 5.7 5.3 5.1 5.1 5.6 5.4 4.9 5.1 5.3 5.4 5.4 5.5 5.9 6.2 6.3 6.6 6.5 6.4 6.3 6.4 6.4 6.2 5.9 6.1 6.3 6.3 6.3 6.2 6.2 6.3 6.3 6.4 6.4 6.6 6.7
5.3 5.6 5.2 5.6 6.0 5.7 5.7 5.3 5.4 5.3 5.0 4.8 5.0 5.4 5.3 5.5 5.5 5.5 5.8 6.0 6.0 6.2 6.5 6.6 6.6 6.5 6.6 6.3 6.1 6.2 6.2 6.2 6.2 6.2 6.2 6.2 6.2 6.3 6.2 6.2 6.4 6.5 6.4
5.9 6.0 6.1 5.9 5.8 5.7 5.2 5.2 5.6 5.8 5.5 5.4 5.2 5.1 5.1 5.2 5.5 5.8 6.1 6.1 6.0 6.3 6.4 6.3 6.4 6.6 6.6 6.1 6.0 6.2 6.2 6.2 6.2 6.3 6.3 6.2 6.2 6.1 6.2 6.2 6.3 6.4 6.3
Wind_Speed
20 19 18 16 16 14 9 10 10 9 10 13 13 12 12 12 11 8 8 7 7 7 5 6 6 6 4 3 1 1 1 3 4 3 2 2 2 4 7 11 13 14 17
21 19 19 17 15 15 15 11 10 12 11 15 14 14 13 13 11 12 11 8 8 8 7 6 7 4 5 5 3 2 1 1 2 2 2 2 4 5 6 6 8 12 15
21 20 18 18 17 17 17 13 12 14 11 12 15 15 15 14 13 12 11 8 7 8 7 7 7 7 5 3 3 3 2 1 1 2 4 3 3 3 5 5 4 5 11
21 20 20 19 19 18 17 17 12 12 12 13 14 14 13 13 12 11 10 7 6 7 8 9 8 8 7 6 5 5 4 3 3 3 3 3 4 5 3 3 3 2 4
21 21 21 20 18 17 16 15 15 10 10 12 10 10 9 11 9 10 11 8 8 8 7 6 7 8 11 9 5 6 5 4 3 4 3 2 4 3 3 2 2 3 3
22 22 20 18 18 16 16 14 13 14 10 10 11 11 9 8 12 15 11 8 7 7 7 6 7 10 8 10 9 10 7 6 5 4 4 5 6 4 3 3 1 2 3
22 21 21 20 17 17 14 12 12 13 10 10 10 11 9 9 14 16 15 9 9 9 9 7 6 4 7 6 8 7 8 9 7 5 5 6 5 5 3 2 3 3 3
21 21 21 19 19 15 15 14 11 11 12 10 10 9 9 7 10 11 15 8 9 9 10 9 7 7 6 6 5 6 7 6 7 6 8 11 8 7 5 5 5 4 3
20 21 22 20 18 17 17 13 9 10 8 9 7 9 7 6 10 9 9 7 6 6 5 5 7 7 9 5 5 6 5 6 9 18 18 16 17 15 10 2 4 2 4
22 21 18 18 16 14 15 12 9 9 9 7 7 9 11 8 13 15 10 4 5 4 6 6 10 9 7 9 6 6 5 3 2 4 3 5 8 9 16 8 6 5 2
17 12 11 12 14 14 13 10 11 10 9 8 7 9 11 12 9 15 15 7 6 5 4 4 5 11 7 8 6 5 4 2 3 3 4 4 5 5 4 2 5 4 4
15 14 14 15 13 12 15 10 9 7 7 9 10 8 6 7 11 12 14 12 7 5 4 2 2 7 8 7 6 8 8 3 2 3 3 4 3 2 2 3 5 7 9
16 16 15 15 12 11 11 10 9 8 6 7 8 5 4 4 5 12 13 9 6 4 3 5 7 5 8 7 8 10 6 2 2 1 3 3 3 3 3 3 5 8 7
18 16 14 14 13 10 8 8 8 7 6 6 5 5 4 4 4 4 4 4 6 5 7 5 6 6 7 5 4 5 4 4 4 3 3 2 2 3 3 2 2 2 2
14 12 12 11 12 9 7 4 6 4 2 5 5 5 5 5 5 9 9 6 6 6 5 4 3 3 4 4 4 5 4 4 4 2 2 0 2 2 2 2 2 3 2
14 10 9 9 9 9 8 8 16 9 7 9 9 7 1 2 10 12 12 12 12 13 4 3 4 4 4 4 5 4 3 5 2 2 2 1 1 1 3 3 2 2 3
12 12 9 10 10 9 8 9 7 5 12 13 10 10 6 8 9 11 11 11 9 9 3 3 4 3 2 4 4 3 2 1 2 1 1 2 2 3 3 3 3 3 4
11 13 10 9 9 8 8 8 7 7 5 3 10 7 8 13 13 14 12 9 3 2 3 4 4 2 3 3 3 3 3 4 3 2 1 2 3 2 2 3 4 4 5
9 8 7 7 7 8 8 9 7 6 6 4 3 5 6 8 9 8 5 3 4 4 4 4 3 4 4 5 4 4 3 2 2 0 2 2 3 2 2 4 5 7 6
7 5 5 5 5 7 6 6 7 8 8 7 6 5 5 4 4 5 4 3 3 3 2 3 4 4 5 5 5 4 2 1 1 3 4 3 3 1 3 5 5 4 6
4 5 3 2 4 5 5 5 8 10 9 8 8 9 13 6 5 5 5 5 5 4 3 5 5 5 5 5 5 4 3 2 3 3 3 2 2 3 4 4 4 5 6
5 6 5 4 3 4 5 3 6 8 8 8 6 6 15 4 5 6 6 5 5 4 4 5 4 5 4 5 5 5 3 2 3 1 3 3 2 4 4 4 5 5 5
4 5 5 5 6 2 4 5 6 6 7 7 7 7 7 5 5 6 6 6 5 5 4 5 5 4 4 5 7 5 4 1 3 4 4 3 3 4 4 4 5 5 4
7 7 4 3 4 4 3 5 5 8 7 7 8 9 8 5 5 6 5 4 4 4 5 5 5 7 7 5 8 9 11 11 9 6 5 3 2 5 5 5 5 6 5
6 8 4 3 4 4 5 4 4 3 1 7 7 7 6 6 6 6 5 5 5 5 4 5 4 6 8 12 13 14 13 11 7 4 2 1 3 6 6 5 4 5 6
5 5 4 2 2 1 3 3 3 5 4 4 7 8 9 7 7 7 6 6 5 5 5 5 5 8 14 16 18 19 16 13 9 6 3 1 3 4 5 6 6 4 6
Wind_Direction
186 189 195 204 203 202 192 204 190 184 166 174 175 168 174 174 182 175 184 194 196 205 206 200 224 219 213 216 153 97 153 165 178 283 204 233 248 280 290 276 266 257 259
187 190 197 200 198 199 208 205 188 194 179 178 179 180 177 182 182 184 188 190 197 199 206 205 220 214 209 215 186 165 169 250 147 213 272 286 247 265 253 256 262 261 264
186 191 194 202 200 199 204 202 194 197 184 176 180 182 184 182 185 188 188 190 189 200 200 208 218 209 219 216 207 204 203 204 125 159 243 235 256 251 265 265 258 264 274
187 191 197 202 204 202 201 205 197 188 180 182 185 184 184 186 188 182 178 182 196 205 203 208 209 208 204 201 194 206 211 209 194 236 244 246 235 265 243 225 282 246 279
187 192 199 204 206 205 204 202 204 188 182 180 168 177 174 182 183 173 178 179 193 214 216 209 205 209 200 187 183 219 216 219 216 216 255 276 268 272 256 276 245 274 284
188 195 199 201 204 203 201 200 191 196 177 165 174 173 173 192 182 175 175 181 193 213 219 219 211 217 205 173 199 209 194 196 212 189 222 231 253 240 226 245 267 313 301
192 193 197 201 199 201 194 191 185 187 167 170 166 166 178 186 184 177 173 181 193 205 219 209 209 207 198 210 226 231 238 214 210 204 236 239 247 228 213 259 247 222 238
192 194 195 196 201 192 187 187 178 173 170 163 165 165 174 181 167 197 197 188 194 201 197 200 205 217 218 216 205 209 229 229 233 231 222 254 238 245 207 214 216 235 268
191 195 195 191 193 189 183 177 162 152 149 168 161 171 157 174 183 176 174 186 186 204 201 205 202 218 221 236 206 238 265 272 265 243 230 237 259 261 230 158 263 236 273
196 197 191 188 185 171 161 145 140 156 151 156 154 169 174 181 196 200 181 163 195 200 211 211 214 218 223 182 189 210 243 265 331 342 330 263 254 254 252 204 243 243 246
186 154 156 157 149 138 125 134 137 149 158 158 168 166 169 193 188 180 186 184 200 203 196 240 246 225 190 171 190 188 194 154 298 296 292 293 287 285 288 258 186 186 220
145 133 130 128 131 130 138 151 149 152 133 140 137 162 179 177 158 196 194 201 188 174 183 193 136 138 154 173 173 157 172 184 265 299 299 294 300 304 233 242 251 247 246
121 124 122 120 126 127 136 132 129 125 150 142 143 153 163 170 160 179 197 191 143 128 144 161 155 161 156 163 180 189 190 206 237 274 282 268 241 280 311 340 340 343 326
122 124 125 125 127 126 128 132 136 138 152 140 148 157 174 167 151 155 138 131 154 162 136 147 171 173 176 193 186 223 217 213 204 223 230 255 307 2 349 335 308 294 313
117 127 127 129 120 96 69 42 112 62 126 148 160 161 162 166 184 168 162 176 175 171 149 121 157 193 199 212 224 218 212 217 226 239 279 208 307 342 310 302 277 303 290
117 118 125 118 118 120 117 93 48 65 73 84 132 139 141 328 159 169 179 171 160 155 147 170 199 214 214 213 209 219 213 222 189 150 191 224 260 278 287 304 286 281 281
126 132 132 131 140 133 130 121 121 50 71 54 59 112 129 140 136 130 119 107 123 137 164 190 204 227 202 147 171 183 192 127 111 114 95 35 350 307 319 297 298 296 298
129 137 143 142 142 140 137 142 137 145 143 97 36 78 93 111 122 128 127 97 94 54 173 204 221 205 169 139 130 119 121 115 114 117 59 297 296 300 294 311 307 290 289
132 138 143 146 149 156 153 151 150 144 139 120 108 61 64 94 109 120 120 136 172 198 217 226 207 164 118 109 107 98 114 125 145 209 286 287 293 246 307 302 299 294 294
132 131 122 139 183 170 152 157 147 162 140 151 157 156 156 146 156 173 185 172 183 201 201 188 143 133 124 127 127 128 121 105 260 249 250 239 263 288 293 296 294 298 304
58 103 82 142 182 184 145 157 166 162 162 170 172 168 170 164 160 175 179 188 195 212 144 138 142 148 153 154 144 141 149 234 260 257 178 128 28 328 311 294 300 311 299
165 150 152 165 136 139 137 153 126 163 153 164 151 153 171 177 172 184 191 188 175 166 150 140 145 134 139 135 140 129 150 233 295 166 121 86 23 332 314 307 320 310 304
58 84 100 122 127 135 126 104 109 130 133 126 125 147 175 209 186 164 161 167 157 145 152 145 140 132 114 133 138 144 134 100 142 130 93 65 14 334 319 304 312 308 305
73 53 18 112 96 86 76 78 63 123 135 137 146 162 181 183 169 153 149 142 148 159 162 162 152 130 123 119 102 92 111 122 122 102 105 86 323 312 321 316 301 308 314
72 103 117 26 65 74 76 65 89 91 71 163 163 170 175 168 154 156 160 164 171 149 162 145 156 156 138 128 134 132 128 120 113 103 82 53 283 303 299 284 292 324 316
110 119 121 104 44 177 114 128 151 164 189 171 166 182 176 170 166 166 169 171 174 179 177 179 175 168 152 148 151 153 150 149 146 151 158 216 282 291 297 290 319 325 309